Time,TemperatureF,DewpointF,PressureIn,WindDirection,WindDirectionDegrees,WindSpeedMPH,WindSpeedGustMPH,Humidity,HourlyPrecipIn,Conditions,Clouds,dailyrainin,SoftwareType,DateUTC
2013-07-13 00:04:00,70.7,69.1,30.10,West,260,0.0,0.0,95,0.00,,,0.00,Weather View 32 v70,2013-07-13 04:04:00,
2013-07-13 00:09:00,70.7,69.1,30.10,West,260,0.0,0.0,95,0.00,,,0.00,Weather View 32 v70,2013-07-13 04:09:00,
2013-07-13 00:14:00,70.7,69.1,30.11,West,260,0.0,0.0,95,0.00,,,0.00,Weather View 32 v70,2013-07-13 04:14:00,
2013-07-13 00:19:00,70.7,69.1,30.11,West,260,0.0,0.0,95,0.00,,,0.00,Weather View 32 v70,2013-07-13 04:19:00,
2013-07-13 00:24:00,70.7,69.1,30.11,West,260,0.0,0.0,95,0.00,,,0.00,Weather View 32 v70,2013-07-13 04:24:00,
2013-07-13 00:29:00,70.9,69.4,30.10,West,260,0.0,0.0,95,0.00,,,0.00,Weather View 32 v70,2013-07-13 04:29:00,
2013-07-13 00:34:00,70.9,69.4,30.10,West,260,0.0,0.0,95,0.00,,,0.00,Weather View 32 v70,2013-07-13 04:34:00,
2013-07-13 00:39:00,71.0,69.4,30.10,West,260,0.0,0.0,95,0.00,,,0.00,Weather View 32 v70,2013-07-13 04:39:00,
2013-07-13 00:49:00,71.0,69.4,30.10,West,260,0.0,0.0,95,0.00,,,0.00,Weather View 32 v70,2013-07-13 04:49:00,
2013-07-13 00:55:00,71.1,69.5,30.10,West,260,0.0,0.0,95,0.00,,,0.00,Weather View 32 v70,2013-07-13 04:55:00,
2013-07-13 01:04:00,71.0,69.4,30.11,West,260,0.0,0.0,95,0.00,,,0.00,Weather View 32 v70,2013-07-13 05:04:00,
2013-07-13 01:09:00,71.1,69.5,30.11,West,260,0.0,0.0,95,0.00,,,0.00,Weather View 32 v70,2013-07-13 05:09:00,
2013-07-13 01:15:00,71.1,69.4,30.11,West,260,0.0,0.0,95,0.00,,,0.00,Weather View 32 v70,2013-07-13 05:15:00,
2013-07-13 01:24:00,71.1,69.5,30.10,West,260,0.0,0.0,95,0.00,,,0.00,Weather View 32 v70,2013-07-13 05:24:00,
2013-07-13 01:30:00,71.1,69.4,30.10,West,260,0.0,0.0,94,0.00,,,0.00,Weather View 32 v70,2013-07-13 05:30:00,
2013-07-13 01:34:00,70.8,69.0,30.10,West,260,0.0,0.0,94,0.00,,,0.00,Weather View 32 v70,2013-07-13 05:34:00,
2013-07-13 01:44:00,70.8,69.1,30.11,West,260,0.0,0.0,94,0.01,,,0.01,Weather View 32 v70,2013-07-13 05:44:00,
2013-07-13 01:49:00,71.0,69.3,30.11,West,260,0.0,0.0,95,0.01,,,0.01,Weather View 32 v70,2013-07-13 05:49:00,
2013-07-13 01:54:00,71.0,69.3,30.11,West,260,0.0,0.0,95,0.01,,,0.01,Weather View 32 v70,2013-07-13 05:54:00,
2013-07-13 01:59:00,71.0,69.4,30.10,West,260,0.0,0.0,95,0.01,,,0.01,Weather View 32 v70,2013-07-13 05:59:00,
2013-07-13 02:05:00,71.0,69.3,30.10,West,260,0.0,0.0,95,0.01,,,0.01,Weather View 32 v70,2013-07-13 06:05:00,
2013-07-13 02:10:00,71.0,69.3,30.10,West,260,0.0,0.0,95,0.01,,,0.01,Weather View 32 v70,2013-07-13 06:10:00,
2013-07-13 02:20:00,70.9,69.3,30.10,West,260,0.0,0.0,95,0.01,,,0.01,Weather View 32 v70,2013-07-13 06:20:00,
2013-07-13 02:29:00,70.8,69.1,30.11,West,260,0.0,0.0,94,0.01,,,0.01,Weather View 32 v70,2013-07-13 06:29:00,
2013-07-13 02:34:00,70.8,69.2,30.11,West,260,0.0,0.0,95,0.01,,,0.01,Weather View 32 v70,2013-07-13 06:34:00,
2013-07-13 02:39:00,70.5,68.8,30.11,West,260,0.0,0.0,95,0.00,,,0.01,Weather View 32 v70,2013-07-13 06:39:00,
2013-07-13 02:49:00,70.1,68.4,30.11,West,260,0.0,0.0,94,0.00,,,0.01,Weather View 32 v70,2013-07-13 06:49:00,
2013-07-13 02:54:00,70.1,68.5,30.11,West,260,0.0,0.0,95,0.00,,,0.01,Weather View 32 v70,2013-07-13 06:54:00,
2013-07-13 02:59:00,70.0,68.4,30.11,West,260,0.0,0.0,95,0.00,,,0.01,Weather View 32 v70,2013-07-13 06:59:00,
2013-07-13 03:04:00,69.8,68.2,30.11,SE,128,0.0,3.0,95,0.00,,,0.01,Weather View 32 v70,2013-07-13 07:04:00,
2013-07-13 03:14:00,69.9,68.2,30.10,SE,138,0.0,3.0,94,0.00,,,0.01,Weather View 32 v70,2013-07-13 07:14:00,
2013-07-13 03:19:00,69.9,68.2,30.10,SE,138,0.0,3.0,94,0.00,,,0.01,Weather View 32 v70,2013-07-13 07:19:00,
2013-07-13 03:24:00,69.8,68.2,30.10,SE,138,0.0,3.0,95,0.00,,,0.01,Weather View 32 v70,2013-07-13 07:24:00,
2013-07-13 03:34:00,69.7,68.0,30.11,SE,138,0.0,3.0,95,0.00,,,0.01,Weather View 32 v70,2013-07-13 07:34:00,
2013-07-13 03:40:00,69.6,67.9,30.11,SE,138,0.0,3.0,94,0.00,,,0.01,Weather View 32 v70,2013-07-13 07:40:00,
2013-07-13 03:49:00,69.4,67.7,30.10,SE,138,0.0,3.0,95,0.00,,,0.01,Weather View 32 v70,2013-07-13 07:49:00,
2013-07-13 03:54:00,69.4,67.7,30.11,SE,138,0.0,3.0,95,0.00,,,0.01,Weather View 32 v70,2013-07-13 07:54:00,
2013-07-13 03:59:00,69.5,67.9,30.10,SE,138,0.0,3.0,95,0.00,,,0.01,Weather View 32 v70,2013-07-13 07:59:00,
2013-07-13 04:04:00,69.5,67.9,30.10,SE,138,0.0,1.0,95,0.00,,,0.01,Weather View 32 v70,2013-07-13 08:04:00,
2013-07-13 04:09:00,69.5,67.9,30.10,SE,138,0.0,1.0,95,0.00,,,0.01,Weather View 32 v70,2013-07-13 08:09:00,
2013-07-13 04:19:00,69.3,67.7,30.11,SE,138,0.0,0.0,95,0.00,,,0.01,Weather View 32 v70,2013-07-13 08:19:00,
2013-07-13 04:24:00,69.2,67.6,30.11,SE,138,0.0,0.0,95,0.00,,,0.01,Weather View 32 v70,2013-07-13 08:24:00,
2013-07-13 04:29:00,69.0,67.4,30.11,SE,138,0.0,0.0,95,0.00,,,0.01,Weather View 32 v70,2013-07-13 08:29:00,
2013-07-13 04:39:00,68.9,67.2,30.11,SE,138,0.0,0.0,94,0.00,,,0.01,Weather View 32 v70,2013-07-13 08:39:00,
2013-07-13 04:44:00,68.8,67.2,30.11,SE,138,0.0,0.0,95,0.00,,,0.01,Weather View 32 v70,2013-07-13 08:44:00,
2013-07-13 04:49:00,68.9,67.2,30.11,SE,138,0.0,0.0,95,0.00,,,0.01,Weather View 32 v70,2013-07-13 08:49:00,
2013-07-13 04:59:00,68.9,67.3,30.11,SE,138,0.0,0.0,95,0.00,,,0.01,Weather View 32 v70,2013-07-13 08:59:00,
2013-07-13 05:04:00,68.7,67.1,30.11,SE,138,0.0,0.0,95,0.00,,,0.01,Weather View 32 v70,2013-07-13 09:04:00,
2013-07-13 05:09:00,68.5,66.9,30.10,SE,138,0.0,0.0,95,0.00,,,0.01,Weather View 32 v70,2013-07-13 09:09:00,
2013-07-13 05:14:00,68.5,66.9,30.11,SE,138,0.0,0.0,95,0.00,,,0.01,Weather View 32 v70,2013-07-13 09:14:00,
2013-07-13 05:19:00,68.4,66.8,30.11,SE,138,0.0,0.0,95,0.00,,,0.01,Weather View 32 v70,2013-07-13 09:19:00,
2013-07-13 05:29:00,68.4,66.9,30.12,SE,138,0.0,0.0,95,0.00,,,0.01,Weather View 32 v70,2013-07-13 09:29:00,
2013-07-13 05:34:00,68.4,67.0,30.12,SE,138,0.0,0.0,95,0.00,,,0.01,Weather View 32 v70,2013-07-13 09:34:00,
2013-07-13 05:39:00,68.5,67.1,30.12,SE,138,0.0,0.0,95,0.00,,,0.01,Weather View 32 v70,2013-07-13 09:39:00,
2013-07-13 05:44:00,68.5,67.1,30.13,SW,217,0.0,2.0,95,0.00,,,0.01,Weather View 32 v70,2013-07-13 09:44:00,
2013-07-13 05:49:00,68.3,66.9,30.13,SW,217,0.0,2.0,95,0.00,,,0.01,Weather View 32 v70,2013-07-13 09:49:00,
2013-07-13 05:54:00,67.8,66.4,30.13,South,169,0.0,3.0,95,0.00,,,0.01,Weather View 32 v70,2013-07-13 09:54:00,
2013-07-13 05:59:00,67.1,65.8,30.13,South,181,0.0,3.0,96,0.00,,,0.01,Weather View 32 v70,2013-07-13 09:59:00,
2013-07-13 06:09:00,66.7,65.5,30.14,SE,141,0.0,3.0,96,0.00,,,0.01,Weather View 32 v70,2013-07-13 10:09:00,
2013-07-13 06:14:00,66.6,65.5,30.14,SE,134,0.0,3.0,96,0.00,,,0.01,Weather View 32 v70,2013-07-13 10:14:00,
2013-07-13 06:19:00,66.5,65.4,30.14,SE,134,0.0,3.0,96,0.00,,,0.01,Weather View 32 v70,2013-07-13 10:19:00,
2013-07-13 06:29:00,66.7,65.6,30.14,SSE,156,1.0,3.0,96,0.00,,,0.01,Weather View 32 v70,2013-07-13 10:29:00,
2013-07-13 06:34:00,66.8,65.7,30.14,SE,136,0.0,3.0,96,0.00,,,0.01,Weather View 32 v70,2013-07-13 10:34:00,
2013-07-13 06:39:00,66.8,65.7,30.14,SE,136,0.0,3.0,96,0.00,,,0.01,Weather View 32 v70,2013-07-13 10:39:00,
2013-07-13 06:44:00,66.7,65.7,30.14,SE,131,0.0,3.0,97,0.00,,,0.01,Weather View 32 v70,2013-07-13 10:44:00,
2013-07-13 06:54:00,66.8,65.8,30.15,SE,131,0.0,3.0,97,0.00,,,0.01,Weather View 32 v70,2013-07-13 10:54:00,
2013-07-13 06:59:00,66.8,65.8,30.15,SSW,210,0.0,3.0,97,0.00,,,0.01,Weather View 32 v70,2013-07-13 10:59:00,
2013-07-13 07:04:00,66.9,65.9,30.15,SSW,197,0.0,4.0,97,0.00,,,0.01,Weather View 32 v70,2013-07-13 11:04:00,
2013-07-13 07:09:00,67.1,66.1,30.15,SSW,197,0.0,4.0,97,0.00,,,0.01,Weather View 32 v70,2013-07-13 11:09:00,
2013-07-13 07:14:00,67.2,66.2,30.15,SSW,197,0.0,4.0,97,0.00,,,0.01,Weather View 32 v70,2013-07-13 11:14:00,
2013-07-13 07:24:00,67.3,66.3,30.15,SSW,197,0.0,4.0,97,0.00,,,0.01,Weather View 32 v70,2013-07-13 11:24:00,
2013-07-13 07:29:00,67.5,66.5,30.16,SSW,197,0.0,4.0,97,0.00,,,0.01,Weather View 32 v70,2013-07-13 11:29:00,
2013-07-13 07:39:00,67.7,66.7,30.16,SSW,197,0.0,4.0,97,0.00,,,0.01,Weather View 32 v70,2013-07-13 11:39:00,
2013-07-13 07:44:00,67.8,66.8,30.16,SSW,197,0.0,4.0,97,0.00,,,0.01,Weather View 32 v70,2013-07-13 11:44:00,
2013-07-13 07:49:00,68.0,67.0,30.16,SSW,197,0.0,4.0,97,0.00,,,0.01,Weather View 32 v70,2013-07-13 11:49:00,
2013-07-13 07:54:00,68.0,67.0,30.16,SSW,197,0.0,4.0,97,0.00,,,0.01,Weather View 32 v70,2013-07-13 11:54:00,
2013-07-13 07:59:00,68.3,67.3,30.17,SSW,197,0.0,4.0,97,0.00,,,0.01,Weather View 32 v70,2013-07-13 11:59:00,
2013-07-13 08:09:00,68.7,67.7,30.16,SSW,197,0.0,0.0,97,0.00,,,0.01,Weather View 32 v70,2013-07-13 12:09:00,
2013-07-13 08:14:00,68.7,67.6,30.17,SSW,197,0.0,0.0,96,0.00,,,0.01,Weather View 32 v70,2013-07-13 12:14:00,
2013-07-13 08:19:00,68.8,67.7,30.17,SSW,197,0.0,0.0,96,0.00,,,0.01,Weather View 32 v70,2013-07-13 12:19:00,
2013-07-13 08:29:00,69.2,68.1,30.17,SSW,197,0.0,0.0,96,0.00,,,0.01,Weather View 32 v70,2013-07-13 12:29:00,
2013-07-13 08:34:00,69.4,68.3,30.17,SSW,197,0.0,0.0,96,0.00,,,0.01,Weather View 32 v70,2013-07-13 12:34:00,
2013-07-13 08:39:00,70.0,68.8,30.17,NNE,23,2.0,4.0,96,0.00,,,0.01,Weather View 32 v70,2013-07-13 12:39:00,
2013-07-13 08:44:00,70.3,69.1,30.17,NE,35,0.0,4.0,96,0.00,,,0.01,Weather View 32 v70,2013-07-13 12:44:00,
2013-07-13 08:49:00,70.4,69.1,30.17,North,357,0.0,4.0,96,0.00,,,0.01,Weather View 32 v70,2013-07-13 12:49:00,
2013-07-13 08:54:00,70.4,69.0,30.17,NNE,30,2.0,4.0,96,0.00,,,0.01,Weather View 32 v70,2013-07-13 12:54:00,
2013-07-13 08:59:00,70.5,69.1,30.18,NW,314,1.0,4.0,96,0.00,,,0.01,Weather View 32 v70,2013-07-13 12:59:00,
2013-07-13 09:09:00,70.9,69.3,30.19,NNW,332,0.0,5.0,95,0.00,,,0.01,Weather View 32 v70,2013-07-13 13:09:00,
2013-07-13 09:14:00,71.2,69.6,30.19,NNW,332,0.0,5.0,95,0.00,,,0.01,Weather View 32 v70,2013-07-13 13:14:00,
2013-07-13 09:19:00,71.1,69.3,30.19,WNW,295,0.0,5.0,94,0.00,,,0.01,Weather View 32 v70,2013-07-13 13:19:00,
2013-07-13 09:29:00,71.7,69.7,30.19,NNE,20,1.0,5.0,94,0.00,,,0.01,Weather View 32 v70,2013-07-13 13:29:00,
2013-07-13 09:34:00,71.9,69.9,30.19,NE,41,5.0,5.0,93,0.00,,,0.01,Weather View 32 v70,2013-07-13 13:34:00,
2013-07-13 09:39:00,72.1,69.8,30.19,NNE,30,1.0,5.0,93,0.00,,,0.01,Weather View 32 v70,2013-07-13 13:39:00,
2013-07-13 09:49:00,72.3,69.6,30.19,NNE,31,0.0,5.0,91,0.00,,,0.01,Weather View 32 v70,2013-07-13 13:49:00,
2013-07-13 09:54:00,72.6,69.7,30.19,ENE,62,3.0,5.0,91,0.00,,,0.01,Weather View 32 v70,2013-07-13 13:54:00,
2013-07-13 09:59:00,73.2,69.9,30.19,SSE,162,0.0,5.0,89,0.00,,,0.01,Weather View 32 v70,2013-07-13 13:59:00,
2013-07-13 10:09:00,74.4,71.2,30.19,NNE,15,4.0,6.0,90,0.00,,,0.01,Weather View 32 v70,2013-07-13 14:09:00,
2013-07-13 10:14:00,75.0,70.8,30.19,NE,46,1.0,6.0,87,0.00,,,0.01,Weather View 32 v70,2013-07-13 14:14:00,
2013-07-13 10:19:00,75.4,70.7,30.20,ENE,76,2.0,7.0,85,0.00,,,0.01,Weather View 32 v70,2013-07-13 14:19:00,
2013-07-13 10:29:00,75.2,69.4,30.20,SSW,204,1.0,7.0,82,0.00,,,0.01,Weather View 32 v70,2013-07-13 14:29:00,
2013-07-13 10:34:00,74.9,69.0,30.19,SW,225,0.0,7.0,82,0.00,,,0.01,Weather View 32 v70,2013-07-13 14:34:00,
2013-07-13 10:39:00,74.9,69.3,30.20,SW,225,0.0,7.0,83,0.00,,,0.01,Weather View 32 v70,2013-07-13 14:39:00,
2013-07-13 10:49:00,75.2,69.3,30.19,NW,326,0.0,7.0,82,0.00,,,0.01,Weather View 32 v70,2013-07-13 14:49:00,
2013-07-13 10:55:00,75.4,69.8,30.20,NNE,14,0.0,7.0,83,0.00,,,0.01,Weather View 32 v70,2013-07-13 14:55:00,
2013-07-13 11:05:00,76.1,70.5,30.20,NNE,25,1.0,7.0,83,0.00,,,0.01,Weather View 32 v70,2013-07-13 15:05:00,
2013-07-13 11:10:00,76.4,70.7,30.21,East,87,2.0,7.0,83,0.00,,,0.01,Weather View 32 v70,2013-07-13 15:10:00,
2013-07-13 11:15:00,76.4,69.7,30.21,North,10,2.0,7.0,80,0.00,,,0.01,Weather View 32 v70,2013-07-13 15:15:00,
2013-07-13 11:24:00,77.7,71.4,30.21,WNW,290,1.0,6.0,81,0.00,,,0.01,Weather View 32 v70,2013-07-13 15:24:00,
2013-07-13 11:29:00,77.9,71.2,30.21,South,170,1.0,6.0,80,0.00,,,0.01,Weather View 32 v70,2013-07-13 15:29:00,
2013-07-13 11:34:00,77.9,69.8,30.21,SSW,198,0.0,6.0,76,0.00,,,0.01,Weather View 32 v70,2013-07-13 15:34:00,
2013-07-13 11:45:00,78.4,69.8,30.21,NW,307,1.0,6.0,75,0.00,,,0.01,Weather View 32 v70,2013-07-13 15:45:00,
2013-07-13 11:54:00,78.3,70.2,30.21,WNW,284,1.0,6.0,76,0.00,,,0.01,Weather View 32 v70,2013-07-13 15:54:00,
2013-07-13 12:04:00,78.4,71.1,30.21,ENE,66,0.0,6.0,78,0.00,,,0.01,Weather View 32 v70,2013-07-13 16:04:00,
2013-07-13 12:09:00,78.2,70.4,30.21,East,80,0.0,6.0,77,0.00,,,0.01,Weather View 32 v70,2013-07-13 16:09:00,
2013-07-13 12:19:00,78.0,70.6,30.21,WSW,246,2.0,5.0,78,0.00,,,0.01,Weather View 32 v70,2013-07-13 16:19:00,
2013-07-13 12:24:00,78.1,70.0,30.21,NNE,20,0.0,5.0,76,0.00,,,0.01,Weather View 32 v70,2013-07-13 16:24:00,
2013-07-13 12:34:00,78.9,70.3,30.20,WSW,257,2.0,5.0,75,0.00,,,0.01,Weather View 32 v70,2013-07-13 16:34:00,
2013-07-13 12:39:00,78.9,70.4,30.20,ENE,68,0.0,5.0,75,0.00,,,0.01,Weather View 32 v70,2013-07-13 16:39:00,
2013-07-13 12:44:00,79.0,71.0,30.19,NNW,346,0.0,5.0,77,0.00,,,0.01,Weather View 32 v70,2013-07-13 16:44:00,
2013-07-13 12:54:00,79.9,71.4,30.19,SSE,149,0.0,5.0,76,0.00,,,0.01,Weather View 32 v70,2013-07-13 16:54:00,
2013-07-13 12:59:00,80.3,72.4,30.19,ENE,59,1.0,5.0,77,0.00,,,0.01,Weather View 32 v70,2013-07-13 16:59:00,
2013-07-13 13:04:00,80.2,71.6,30.20,North,8,3.0,5.0,75,0.00,,,0.01,Weather View 32 v70,2013-07-13 17:04:00,
2013-07-13 13:14:00,80.1,71.2,30.20,ENE,58,2.0,6.0,74,0.00,,,0.01,Weather View 32 v70,2013-07-13 17:14:00,
2013-07-13 13:19:00,80.0,70.5,30.20,ESE,113,2.0,6.0,73,0.00,,,0.01,Weather View 32 v70,2013-07-13 17:19:00,
2013-07-13 13:25:00,80.0,71.4,30.21,WNW,298,0.0,6.0,75,0.00,,,0.01,Weather View 32 v70,2013-07-13 17:25:00,
2013-07-13 13:34:00,80.3,71.4,30.20,NNW,347,1.0,6.0,74,0.00,,,0.01,Weather View 32 v70,2013-07-13 17:34:00,
2013-07-13 13:39:00,80.9,72.3,30.20,NNW,330,2.0,6.0,75,0.00,,,0.01,Weather View 32 v70,2013-07-13 17:39:00,
2013-07-13 13:44:00,81.4,72.3,30.20,NNE,27,3.0,6.0,74,0.00,,,0.01,Weather View 32 v70,2013-07-13 17:44:00,
2013-07-13 13:54:00,81.3,71.0,30.20,WNW,295,0.0,6.0,71,0.00,,,0.01,Weather View 32 v70,2013-07-13 17:54:00,
2013-07-13 13:59:00,81.5,72.8,30.20,WNW,284,2.0,6.0,75,0.00,,,0.01,Weather View 32 v70,2013-07-13 17:59:00,
2013-07-13 14:09:00,82.1,72.0,30.20,NW,304,0.0,6.0,72,0.00,,,0.01,Weather View 32 v70,2013-07-13 18:09:00,
2013-07-13 14:14:00,82.0,72.0,30.19,WSW,238,0.0,6.0,72,0.00,,,0.01,Weather View 32 v70,2013-07-13 18:14:00,
2013-07-13 14:19:00,81.6,71.2,30.20,South,187,0.0,6.0,71,0.00,,,0.01,Weather View 32 v70,2013-07-13 18:19:00,
2013-07-13 14:24:00,81.7,72.2,30.19,SSW,208,0.0,6.0,73,0.00,,,0.01,Weather View 32 v70,2013-07-13 18:24:00,
2013-07-13 14:34:00,81.7,72.0,30.19,North,11,1.0,6.0,73,0.00,,,0.01,Weather View 32 v70,2013-07-13 18:34:00,
2013-07-13 14:39:00,81.9,72.4,30.19,ENE,72,3.0,6.0,73,0.00,,,0.01,Weather View 32 v70,2013-07-13 18:39:00,
2013-07-13 14:45:00,82.0,72.0,30.19,NE,46,4.0,6.0,72,0.00,,,0.01,Weather View 32 v70,2013-07-13 18:45:00,
2013-07-13 14:54:00,82.1,73.0,30.19,SW,218,0.0,6.0,74,0.00,,,0.01,Weather View 32 v70,2013-07-13 18:54:00,
2013-07-13 14:59:00,82.1,71.7,30.19,SE,142,3.0,6.0,71,0.00,,,0.01,Weather View 32 v70,2013-07-13 18:59:00,
2013-07-13 15:09:00,82.4,70.9,30.19,South,183,3.0,10.0,68,0.00,,,0.01,Weather View 32 v70,2013-07-13 19:09:00,
2013-07-13 15:14:00,82.6,72.9,30.19,WSW,239,2.0,10.0,73,0.00,,,0.01,Weather View 32 v70,2013-07-13 19:14:00,
2013-07-13 15:19:00,83.5,72.1,30.19,South,183,5.0,10.0,69,0.00,,,0.01,Weather View 32 v70,2013-07-13 19:19:00,
2013-07-13 15:29:00,84.2,71.8,30.19,SW,225,7.0,10.0,67,0.00,,,0.01,Weather View 32 v70,2013-07-13 19:29:00,
2013-07-13 15:34:00,84.5,72.6,30.19,East,87,3.0,10.0,68,0.00,,,0.01,Weather View 32 v70,2013-07-13 19:34:00,
2013-07-13 15:39:00,84.2,71.2,30.19,SE,141,1.0,10.0,65,0.00,,,0.01,Weather View 32 v70,2013-07-13 19:39:00,
2013-07-13 15:47:00,83.5,71.0,30.19,ESE,122,3.0,10.0,66,0.00,,,0.01,Weather View 32 v70,2013-07-13 19:47:00,
2013-07-13 15:54:00,82.6,70.2,30.20,SE,145,4.0,10.0,66,0.00,,,0.01,Weather View 32 v70,2013-07-13 19:54:00,
2013-07-13 15:59:00,82.2,70.4,30.20,East,83,2.0,10.0,68,0.00,,,0.01,Weather View 32 v70,2013-07-13 19:59:00,
2013-07-13 16:09:00,82.0,70.3,30.20,SSW,198,0.0,9.0,68,0.00,,,0.01,Weather View 32 v70,2013-07-13 20:09:00,
2013-07-13 16:14:00,82.4,70.2,30.20,South,179,3.0,9.0,67,0.00,,,0.01,Weather View 32 v70,2013-07-13 20:14:00,
2013-07-13 16:19:00,82.3,71.0,30.20,SE,132,3.0,9.0,69,0.00,,,0.01,Weather View 32 v70,2013-07-13 20:19:00,
2013-07-13 16:29:00,81.8,70.5,30.20,ESE,120,3.0,9.0,69,0.00,,,0.01,Weather View 32 v70,2013-07-13 20:29:00,
2013-07-13 16:34:00,82.0,70.3,30.20,SSE,160,1.0,9.0,68,0.00,,,0.01,Weather View 32 v70,2013-07-13 20:34:00,
2013-07-13 16:39:00,81.8,70.7,30.19,East,84,0.0,9.0,69,0.00,,,0.01,Weather View 32 v70,2013-07-13 20:39:00,
2013-07-13 16:45:00,82.0,71.3,30.19,East,91,1.0,9.0,70,0.00,,,0.01,Weather View 32 v70,2013-07-13 20:45:00,
2013-07-13 16:54:00,81.5,70.2,30.20,SE,146,3.0,9.0,69,0.00,,,0.01,Weather View 32 v70,2013-07-13 20:54:00,
2013-07-13 16:59:00,81.4,70.6,30.20,SSE,155,5.0,9.0,70,0.00,,,0.01,Weather View 32 v70,2013-07-13 20:59:00,
2013-07-13 17:09:00,82.5,70.8,30.21,SSE,152,2.0,8.0,68,0.00,,,0.01,Weather View 32 v70,2013-07-13 21:09:00,
2013-07-13 17:14:00,82.4,71.1,30.21,South,170,5.0,8.0,69,0.00,,,0.01,Weather View 32 v70,2013-07-13 21:14:00,
2013-07-13 17:19:00,82.3,71.4,30.21,SW,221,2.0,8.0,70,0.00,,,0.01,Weather View 32 v70,2013-07-13 21:19:00,
2013-07-13 17:24:00,82.0,72.5,30.20,SSW,212,1.0,8.0,73,0.00,,,0.01,Weather View 32 v70,2013-07-13 21:24:00,
2013-07-13 17:29:00,82.0,71.7,30.21,SSE,156,0.0,7.0,71,0.00,,,0.01,Weather View 32 v70,2013-07-13 21:29:00,
2013-07-13 17:34:00,81.7,71.5,30.21,East,80,0.0,7.0,72,0.00,,,0.01,Weather View 32 v70,2013-07-13 21:34:00,
2013-07-13 17:39:00,81.7,70.9,30.21,SE,136,0.0,7.0,70,0.00,,,0.01,Weather View 32 v70,2013-07-13 21:39:00,
2013-07-13 17:48:00,81.7,71.5,30.20,East,97,3.0,7.0,71,0.00,,,0.01,Weather View 32 v70,2013-07-13 21:48:00,
2013-07-13 17:54:00,81.6,72.2,30.20,ENE,72,0.0,7.0,73,0.00,,,0.01,Weather View 32 v70,2013-07-13 21:54:00,
2013-07-13 17:59:00,81.4,71.6,30.20,SSE,156,1.0,7.0,72,0.00,,,0.01,Weather View 32 v70,2013-07-13 21:59:00,
2013-07-13 18:09:00,81.2,71.8,30.21,ENE,73,0.0,7.0,73,0.00,,,0.01,Weather View 32 v70,2013-07-13 22:09:00,
2013-07-13 18:14:00,81.2,72.4,30.21,SSW,198,1.0,7.0,75,0.00,,,0.01,Weather View 32 v70,2013-07-13 22:14:00,
2013-07-13 18:19:00,80.8,72.1,30.21,NE,45,3.0,5.0,75,0.00,,,0.01,Weather View 32 v70,2013-07-13 22:19:00,
2013-07-13 18:29:00,80.8,72.2,30.21,NNE,31,3.0,6.0,75,0.00,,,0.01,Weather View 32 v70,2013-07-13 22:29:00,
2013-07-13 18:34:00,80.8,72.1,30.21,ENE,63,4.0,6.0,75,0.00,,,0.01,Weather View 32 v70,2013-07-13 22:34:00,
2013-07-13 18:39:00,80.7,72.0,30.21,NE,46,4.0,6.0,75,0.00,,,0.01,Weather View 32 v70,2013-07-13 22:39:00,
2013-07-13 18:45:00,80.7,71.8,30.21,ENE,59,4.0,6.0,75,0.00,,,0.01,Weather View 32 v70,2013-07-13 22:45:00,
2013-07-13 18:54:00,80.8,71.9,30.21,ENE,70,3.0,6.0,75,0.00,,,0.01,Weather View 32 v70,2013-07-13 22:54:00,
2013-07-13 18:59:00,80.7,71.6,30.20,ENE,72,2.0,6.0,74,0.00,,,0.01,Weather View 32 v70,2013-07-13 22:59:00,
2013-07-13 19:04:00,80.6,71.8,30.20,ENE,62,2.0,6.0,75,0.00,,,0.01,Weather View 32 v70,2013-07-13 23:04:00,
2013-07-13 19:09:00,80.5,72.1,30.20,ENE,75,2.0,6.0,76,0.00,,,0.01,Weather View 32 v70,2013-07-13 23:09:00,
2013-07-13 19:14:00,80.4,72.6,30.20,ENE,73,3.0,6.0,77,0.00,,,0.01,Weather View 32 v70,2013-07-13 23:14:00,
2013-07-13 19:19:00,80.1,72.0,30.20,ENE,58,5.0,6.0,77,0.00,,,0.01,Weather View 32 v70,2013-07-13 23:19:00,
2013-07-13 19:29:00,79.9,71.7,30.21,NE,46,5.0,6.0,76,0.00,,,0.01,Weather View 32 v70,2013-07-13 23:29:00,
2013-07-13 19:34:00,79.8,71.6,30.21,ENE,70,3.0,6.0,76,0.00,,,0.01,Weather View 32 v70,2013-07-13 23:34:00,
2013-07-13 19:39:00,79.4,71.8,30.21,East,82,2.0,6.0,78,0.00,,,0.01,Weather View 32 v70,2013-07-13 23:39:00,
2013-07-13 19:45:00,79.3,71.7,30.21,East,97,7.0,9.0,78,0.00,,,0.01,Weather View 32 v70,2013-07-13 23:45:00,
2013-07-13 19:54:00,78.8,71.7,30.22,ENE,73,5.0,9.0,79,0.00,,,0.01,Weather View 32 v70,2013-07-13 23:54:00,
2013-07-13 19:59:00,78.7,71.6,30.22,East,96,4.0,9.0,79,0.00,,,0.01,Weather View 32 v70,2013-07-13 23:59:00,
2013-07-13 20:09:00,78.7,71.9,30.22,East,101,6.0,9.0,80,0.00,,,0.01,Weather View 32 v70,2013-07-14 00:09:00,
2013-07-13 20:14:00,78.4,71.7,30.22,ENE,77,3.0,9.0,80,0.00,,,0.01,Weather View 32 v70,2013-07-14 00:14:00,
2013-07-13 20:19:00,78.3,71.7,30.22,East,89,3.0,9.0,80,0.00,,,0.01,Weather View 32 v70,2013-07-14 00:19:00,
2013-07-13 20:25:00,78.2,71.8,30.22,NE,39,3.0,9.0,81,0.00,,,0.01,Weather View 32 v70,2013-07-14 00:25:00,
2013-07-13 20:34:00,77.8,71.5,30.22,NE,39,3.0,9.0,81,0.00,,,0.01,Weather View 32 v70,2013-07-14 00:34:00,
2013-07-13 20:39:00,77.7,71.6,30.22,ENE,63,3.0,9.0,82,0.00,,,0.01,Weather View 32 v70,2013-07-14 00:39:00,
2013-07-13 20:45:00,77.2,71.3,30.22,ENE,76,1.0,9.0,82,0.00,,,0.01,Weather View 32 v70,2013-07-14 00:45:00,
2013-07-13 20:50:00,76.8,71.2,30.22,ESE,108,0.0,9.0,83,0.00,,,0.01,Weather View 32 v70,2013-07-14 00:50:00,
2013-07-13 20:59:00,76.2,71.2,30.23,East,101,0.0,9.0,85,0.00,,,0.01,Weather View 32 v70,2013-07-14 00:59:00,
2013-07-13 21:09:00,75.9,71.3,30.23,East,101,0.0,6.0,86,0.00,,,0.01,Weather View 32 v70,2013-07-14 01:09:00,
2013-07-13 21:14:00,75.8,71.4,30.24,East,101,0.0,5.0,86,0.00,,,0.01,Weather View 32 v70,2013-07-14 01:14:00,
2013-07-13 21:19:00,75.6,71.4,30.24,East,101,0.0,5.0,87,0.00,,,0.01,Weather View 32 v70,2013-07-14 01:19:00,
2013-07-13 21:29:00,75.2,71.3,30.24,East,101,0.0,5.0,88,0.00,,,0.01,Weather View 32 v70,2013-07-14 01:29:00,
2013-07-13 21:34:00,75.1,71.4,30.25,East,101,0.0,5.0,88,0.00,,,0.01,Weather View 32 v70,2013-07-14 01:34:00,
2013-07-13 21:39:00,75.1,71.5,30.25,NE,38,4.0,5.0,89,0.00,,,0.01,Weather View 32 v70,2013-07-14 01:39:00,
2013-07-13 21:45:00,75.0,71.4,30.25,NE,45,3.0,7.0,89,0.00,,,0.01,Weather View 32 v70,2013-07-14 01:45:00,
2013-07-13 21:51:00,75.0,71.3,30.25,NE,41,3.0,7.0,88,0.00,,,0.01,Weather View 32 v70,2013-07-14 01:51:00,
2013-07-13 21:59:00,75.2,71.3,30.25,NE,55,3.0,7.0,88,0.00,,,0.01,Weather View 32 v70,2013-07-14 01:59:00,
2013-07-13 22:04:00,75.4,71.3,30.25,NNE,20,0.0,7.0,87,0.00,,,0.01,Weather View 32 v70,2013-07-14 02:04:00,
2013-07-13 22:14:00,75.3,71.2,30.25,West,260,5.0,7.0,87,0.00,,,0.01,Weather View 32 v70,2013-07-14 02:14:00,
2013-07-13 22:19:00,75.2,71.3,30.25,West,270,3.0,7.0,88,0.00,,,0.01,Weather View 32 v70,2013-07-14 02:19:00,
2013-07-13 22:25:00,75.2,71.4,30.25,WNW,295,0.0,7.0,88,0.00,,,0.01,Weather View 32 v70,2013-07-14 02:25:00,
2013-07-13 22:34:00,75.4,71.2,30.26,WNW,295,0.0,7.0,87,0.00,,,0.01,Weather View 32 v70,2013-07-14 02:34:00,
2013-07-13 22:39:00,75.6,71.3,30.26,WNW,295,0.0,7.0,87,0.00,,,0.01,Weather View 32 v70,2013-07-14 02:39:00,
2013-07-13 22:45:00,75.5,71.3,30.26,WNW,295,0.0,7.0,87,0.00,,,0.01,Weather View 32 v70,2013-07-14 02:45:00,
2013-07-13 22:51:00,75.4,71.4,30.26,SE,131,1.0,7.0,87,0.00,,,0.01,Weather View 32 v70,2013-07-14 02:51:00,
2013-07-13 23:00:00,75.0,71.4,30.27,SSE,149,0.0,7.0,89,0.00,,,0.01,Weather View 32 v70,2013-07-14 03:00:00,
2013-07-13 23:05:00,74.8,71.5,30.27,WSW,240,0.0,7.0,89,0.01,,,0.02,Weather View 32 v70,2013-07-14 03:05:00,
2013-07-13 23:10:00,74.6,71.5,30.27,SSW,201,2.0,7.0,90,0.03,,,0.04,Weather View 32 v70,2013-07-14 03:10:00,
2013-07-13 23:15:00,74.6,71.8,30.27,WSW,252,0.0,7.0,91,0.04,,,0.05,Weather View 32 v70,2013-07-14 03:15:00,
2013-07-13 23:24:00,74.1,71.6,30.28,SW,231,0.0,5.0,92,0.10,,,0.11,Weather View 32 v70,2013-07-14 03:24:00,
2013-07-13 23:29:00,74.0,71.7,30.28,SW,231,0.0,5.0,93,0.11,,,0.12,Weather View 32 v70,2013-07-14 03:29:00,
2013-07-13 23:34:00,73.8,71.6,30.28,SW,231,0.0,5.0,93,0.12,,,0.13,Weather View 32 v70,2013-07-14 03:34:00,
2013-07-13 23:39:00,73.7,71.6,30.27,SW,231,0.0,5.0,93,0.12,,,0.13,Weather View 32 v70,2013-07-14 03:39:00,
2013-07-13 23:49:00,73.5,71.7,30.27,NNW,333,1.0,5.0,94,0.13,,,0.14,Weather View 32 v70,2013-07-14 03:49:00,
2013-07-13 23:54:00,73.4,71.6,30.28,West,262,2.0,5.0,94,0.13,,,0.14,Weather View 32 v70,2013-07-14 03:54:00,
2013-07-13 23:59:00,73.3,71.6,30.28,SW,235,0.0,5.0,95,0.13,,,0.00,Weather View 32 v70,2013-07-14 03:59:00,